Location: Newark
(32.0500°N, 131.1833°E)
Time: 02:22:55
(UTC+00:00)

ISS - Visible Passes

Search period start: 30 September 2020 00:00
Search period end: 10 October 2020 00:00
Orbit: 419 x 421 km, 51.6° (Epoch: 30 September)

Date Brightness Start Highest point End Pass type
(mag) Time Alt. Az. Time Alt. Az. Time Alt. Az.
04 Oct -1.4 10:39:35 10° NNW 10:40:38 16° N 10:40:38 16° N visible
05 Oct -1.8 09:52:49 10° N 09:54:55 15° NNE 09:55:24 15° NE visible
06 Oct -2.3 10:41:15 10° NW 10:43:17 34° NW 10:43:17 34° NW visible
07 Oct -3.3 09:54:01 10° NNW 09:57:14 43° NE 09:58:18 32° E visible
08 Oct -1.6 10:43:47 10° WNW 10:46:30 23° SW 10:46:30 23° SW visible
09 Oct -2.8 09:56:01 10° WNW 09:59:15 45° SW 10:01:54 14° SSE visible
